Back to catalog

DELTA 1 DEB

AliveSSO
NORAD 13537·DEBRIS·🇺🇸 United States

Launched Jul 29, 1976 from Vandenberg Space Force Base

Loading…

Next Passes (next 24 hours)

TLE

FreshSource: Space-Track

Epoch: Sep 13, 2026, 22:01 UTC

1 13537U 76077EK  26256.91797146 -.00000029  00000-0  14714-3 0  9993
2 13537 102.5631 243.3360 0075100 136.6118 251.1317 12.27250487144152

Track DELTA 1 DEB in real time with AllMySat

Download on the App Store